Location: San Antonio
(29.4240°N, 98.4930°W)
Time: 08:51:26
(UTC-05:00)

ISS - All Passes

Search period start: 01 August 2015 00:00
Search period end: 11 August 2015 00:00
Orbit: 401 x 403 km, 51.6° (Epoch: 01 August)

Date Brightness Start Highest point End Pass type
(mag) Time Alt. Az. Time Alt. Az. Time Alt. Az.
01 Aug - 04:30:08 10° N 04:32:01 15° NE 04:33:59 10° ENE visible
01 Aug - 06:05:32 10° WNW 06:08:35 37° SW 06:11:36 10° SSE visible
01 Aug - 21:03:48 10° SW 21:07:01 66° NW 21:10:15 10° NE visible
02 Aug - 05:12:24 10° NW 05:15:39 83° NE 05:18:54 10° SE visible
02 Aug - 20:10:56 10° SSW 20:14:03 46° SE 20:17:12 10° NE daylight
02 Aug - 21:49:08 10° WNW 21:50:43 13° NW 21:52:11 10° N visible
03 Aug - 04:19:37 10° NNW 04:22:38 34° NE 04:25:38 10° ESE night (unlit)
03 Aug - 05:57:11 10° W 05:58:50 13° SW 06:00:22 10° SSW visible
03 Aug - 19:18:46 10° S 19:21:09 19° SE 19:23:37 10° ENE daylight
03 Aug - 20:54:47 10° W 20:57:30 23° NW 21:00:10 10° NNE visible
04 Aug - 03:27:14 10° N 03:29:28 17° NE 03:31:44 10° E night (unlit)
04 Aug - 05:03:03 10° WNW 05:05:57 29° SW 05:08:49 10° SSE night (unlit)
04 Aug - 20:01:13 10° WSW 20:04:23 51° NW 20:07:34 10° NNE daylight
05 Aug - 04:09:45 10° NW 04:13:00 76° SW 04:16:14 10° SE night (unlit)
05 Aug - 19:08:11 10° SSW 19:11:23 61° SE 19:14:36 10° NE daylight
05 Aug - 20:47:12 10° NW 20:48:07 11° NNW 20:48:55 10° NNW visible
06 Aug - 03:16:51 10° NNW 03:19:59 42° NE 03:23:04 10° ESE night (unlit)
06 Aug - 04:55:31 10° WSW 04:56:08 10° SW 04:56:34 10° SW night (unlit)
06 Aug - 18:15:45 10° S 18:18:26 24° SE 18:21:09 10° ENE daylight
06 Aug - 19:52:21 10° W 19:54:50 20° NW 19:57:18 10° N daylight
07 Aug - 02:24:19 10° NNW 02:26:49 20° NE 02:29:21 10° E night (unlit)
07 Aug - 04:00:31 10° WNW 04:03:13 23° SW 04:05:51 10° S night (unlit)
07 Aug - 17:24:50 10° SE 17:25:30 11° SE 17:26:22 10° ESE daylight
07 Aug - 18:58:35 10° WSW 19:01:41 41° NW 19:04:46 10° NNE daylight
08 Aug - 01:32:35 10° NNE 01:33:32 11° NNE 01:34:34 10° NE night (unlit)
08 Aug - 03:07:03 10° NW 03:10:16 58° SW 03:13:27 10° SSE night (unlit)
08 Aug - 18:05:23 10° SW 18:08:37 79° SE 18:11:52 10° NE daylight
09 Aug - 02:14:02 10° NW 02:17:13 53° NE 02:20:24 10° ESE night (unlit)
09 Aug - 17:12:45 10° SSW 17:15:38 30° SE 17:18:33 10° ENE daylight
09 Aug - 18:49:54 10° W 18:52:07 17° NW 18:54:18 10° N daylight
10 Aug - 01:21:22 10° NNW 01:24:04 24° NE 01:26:48 10° E night (unlit)
10 Aug - 02:57:59 10° W 03:00:24 19° SW 03:02:45 10° S night (unlit)
10 Aug - 16:21:05 10° SSE 16:22:41 13° SE 16:24:24 10° E daylight
10 Aug - 17:55:55 10° WSW 17:58:54 33° NW 18:01:53 10° NNE daylight
